Location: Finnegan
(51.1333°N, 112.0833°W)
Time: 07:05:51
(UTC+00:00)

N. Korean satellite - Pass Details

Date: 08 December 2021
Orbit: 446 x 491 km, 97.3° (Epoch: 18 January)

Event Time Altitude Azimuth Distance (km) Brightness Sun altitude
Rises 00:54:52 0° 209° (SSW) 2,516 11.0 -13.7°
Reaches altitude 10° 00:57:42 10° 235° (SW) 1,633 10.5 -14.1°
Maximum altitude 00:59:41 14° 270° (W) 1,379 10.0 -14.4°
Drops below altitude 10° 01:01:40 10° 305° (NW) 1,625 9.7 -14.7°
Sets 01:04:29 0° 330° (NNW) 2,496 10.3 -15.1°
